Weather observations for the past three days for
Oahu, Kalaeloa Airport
| Date | Time (hst) | Wind (mph) | Vis. (mi.) | Weather | Sky Cond. | Temperature (ºF) | Relative Humidity | Wind Chill (°F) | Heat Index (°F) | Pressure | Precipitation (in) | ||||||
|---|---|---|---|---|---|---|---|---|---|---|---|---|---|---|---|---|---|
| Air | Dwpt | 6 hour | altimeter (in) | sea level (mb) | 1 hr | 3 hr | 6 hr | ||||||||||
| Max. | Min. | ||||||||||||||||
| 03 | 09:53 | NE 12 G 20 | 10.00 | Mostly Cloudy | FEW030 SCT041 BKN050 | 84 | 71.1 | 65% | 89 | 29.97 | 1015.4 | ||||||
| 03 | 08:53 | NE 6 G 21 | 10.00 | Fair | CLR | 81 | 70 | 69% | 84 | 29.97 | 1015.5 | ||||||
| 03 | 07:53 | NE 8 G 21 | 10.00 | A Few Clouds | FEW039 | 79 | 68 | 80.1 | 75 | 69% | 81 | 29.97 | 1015.4 | ||||
| 03 | 06:53 | NE 6 | 10.00 | A Few Clouds | FEW047 | 75.9 | 68 | 77% | 77 | 29.96 | 1015.0 | ||||||
| 03 | 05:53 | NE 7 | 10.00 | A Few Clouds | FEW046 | 75.9 | 68 | 77% | 77 | 29.95 | 1014.9 | ||||||
| 03 | 04:53 | Calm | 10.00 | Fair | CLR | 75 | 68 | 79% | 76 | 29.94 | 1014.6 | ||||||
| 03 | 03:53 | Vrbl 5 | 10.00 | Fair | CLR | 75.9 | 68 | 77% | 77 | 29.94 | 1014.4 | ||||||
| 03 | 02:53 | NE 5 | 10.00 | A Few Clouds | FEW050 | 75.9 | 68 | 77% | 77 | 29.94 | 1014.5 | ||||||
| 03 | 01:53 | NE 6 | 10.00 | A Few Clouds | FEW047 | 77 | 68 | 79 | 77 | 74% | 79 | 29.95 | 1014.8 | ||||
| 03 | 00:53 | E 8 | 10.00 | A Few Clouds | FEW033 | 78.1 | 69.1 | 74% | 80 | 29.96 | 1015.1 | ||||||
| 02 | 23:53 | NE 5 | 10.00 | Fair | CLR | 78.1 | 68 | 71% | 80 | 29.97 | 1015.5 | ||||||
| 02 | 22:53 | NE 9 | 10.00 | A Few Clouds | FEW037 | 79 | 69.1 | 72% | 82 | 29.98 | 1015.9 | ||||||
| 02 | 21:53 | E 10 G 20 | 10.00 | Partly Cloudy | SCT037 | 79 | 68 | 69% | 81 | 29.99 | 1016.0 | ||||||
| 02 | 20:53 | E 6 | 10.00 | Partly Cloudy | SCT038 | 79 | 68 | 69% | 81 | 29.97 | 1015.4 | ||||||
| 02 | 19:53 | E 7 | 10.00 | A Few Clouds | FEW042 | 79 | 68 | 89.1 | 79 | 69% | 81 | 29.95 | 1014.8 | ||||
| 02 | 18:53 | NE 8 | 10.00 | Fair | CLR | 80.1 | 66.9 | 64% | 82 | 29.93 | 1014.3 | ||||||
| 02 | 17:53 | NE 10 G 23 | 10.00 | Fair | CLR | 82.9 | 66.9 | 59% | 86 | 29.92 | 1013.7 | ||||||
| 02 | 16:53 | NE 9 G 28 | 10.00 | Fair | CLR | 84.9 | 68 | 57% | 88 | 29.91 | 1013.5 | ||||||
| 02 | 15:53 | NE 13 G 25 | 10.00 | Fair | CLR | 86 | 68 | 55% | 89 | 29.91 | 1013.4 | ||||||
| 02 | 14:53 | NE 13 G 25 | 10.00 | Fair | CLR | 89.1 | 69.1 | 52% | 94 | 29.91 | 1013.3 | ||||||
| 02 | 13:53 | NE 9 G 22 | 10.00 | A Few Clouds | FEW039 | 88 | 70 | 90 | 77 | 55% | 93 | 29.91 | 1013.5 | ||||
| 02 | 12:53 | NE 13 G 29 | 10.00 | Partly Cloudy | SCT037 | 88 | 71.1 | 57% | 94 | 29.93 | 1014.1 | ||||||
| 02 | 11:53 | E 10 G 22 | 10.00 | Mostly Cloudy | SCT030 SCT045 BKN049 | 84.9 | 73.9 | 70% | 92 | 29.95 | 1014.8 | ||||||
| 02 | 10:53 | NE 7 | 10.00 | Mostly Cloudy | SCT055 BKN100 | 80.1 | 75 | 85% | 85 | 29.97 | 1015.3 | ||||||
| 02 | 09:53 | NE 7 | 10.00 | Light Rain | FEW007 SCT041 OVC055 | 79 | 77 | 94% | 83 | 29.98 | 1015.7 | ||||||
| 02 | 08:53 | Vrbl 3 | 10.00 | Light Rain | FEW005 BKN030 OVC039 | 77 | 75.9 | 96% | 78 | 29.98 | 1015.7 | ||||||
| 02 | 07:53 | Vrbl 6 | 10.00 | Light Rain | FEW029 BKN036 OVC046 | 77 | 75 | 78.1 | 75.9 | 94% | 78 | 29.97 | 1015.4 | ||||
| 02 | 06:53 | NE 6 | 10.00 | Light Rain | BKN040 BKN049 OVC080 | 75.9 | 73.9 | 94% | 75 | 29.95 | 1014.9 | ||||||
| 02 | 05:53 | Vrbl 3 | 10.00 | Light Rain | OVC023 | 75.9 | 73 | 91% | 76 | 29.94 | 1014.6 | ||||||
| 02 | 04:53 | NE 6 | 10.00 | Overcast | BKN035 OVC050 | 77 | 72 | 85% | 78 | 29.93 | 1014.1 | ||||||
| 02 | 03:53 | NE 5 | 10.00 | Overcast | FEW028 SCT036 OVC045 | 78.1 | 71.1 | 79% | 80 | 29.93 | 1014.1 | ||||||
| 02 | 02:53 | Vrbl 6 | 10.00 | Mostly Cloudy | BKN055 | 78.1 | 71.1 | 79% | 80 | 29.93 | 1014.1 | ||||||
| 02 | 01:53 | NE 7 | 10.00 | Mostly Cloudy | BKN026 BKN032 | 78.1 | 71.1 | 79 | 75.9 | 79% | 80 | 29.95 | 1014.7 | ||||
| 02 | 00:53 | NE 3 | 10.00 | A Few Clouds | FEW055 | 75.9 | 70 | 82% | 77 | 29.96 | 1015.1 | ||||||
| 01 | 23:53 | NE 6 | 10.00 | A Few Clouds | FEW043 | 78.1 | 70 | 76% | 80 | 29.97 | 1015.5 | ||||||
| 01 | 22:53 | NE 6 | 10.00 | A Few Clouds | FEW046 | 78.1 | 69.1 | 74% | 80 | 29.98 | 1015.9 | ||||||
| 01 | 21:53 | NE 5 | 10.00 | Mostly Cloudy | BKN039 | 78.1 | 70 | 76% | 80 | 29.99 | 1016.0 | ||||||
| 01 | 20:53 | NE 6 G 21 | 10.00 | Mostly Cloudy | SCT031 BKN039 | 79 | 70 | 74% | 82 | 29.97 | 1015.6 | ||||||
| 01 | 19:53 | NE 8 | 10.00 | Mostly Cloudy | FEW026 BKN035 | 79 | 70 | 89.1 | 79 | 74% | 82 | 29.96 | 1015.3 | ||||
| 01 | 18:53 | NE 8 | 10.00 | A Few Clouds | FEW034 | 79 | 70 | 74% | 82 | 29.95 | 1014.8 | ||||||
| 01 | 17:53 | NE 8 G 18 | 10.00 | Mostly Cloudy | BKN031 | 82 | 70 | 67% | 86 | 29.94 | 1014.5 | ||||||
| 01 | 16:53 | NE 14 G 26 | 10.00 | Mostly Cloudy | BKN037 | 84 | 69.1 | 61% | 88 | 29.93 | 1014.2 | ||||||
| 01 | 15:53 | NE 13 G 23 | 10.00 | A Few Clouds | FEW038 | 87.1 | 69.1 | 55% | 91 | 29.93 | 1014.1 | ||||||
| 01 | 14:53 | NE 12 G 22 | 10.00 | Partly Cloudy | SCT037 | 86 | 68 | 55% | 89 | 29.94 | 1014.5 | ||||||
| 01 | 13:53 | NE 12 G 33 | 10.00 | A Few Clouds | FEW041 | 88 | 68 | 90 | 79 | 52% | 92 | 29.95 | 1014.6 | ||||
| 01 | 12:53 | NE 14 G 30 | 10.00 | A Few Clouds | FEW041 | 89.1 | 66.9 | 48% | 92 | 29.97 | 1015.3 | ||||||
| 01 | 11:53 | NE 16 G 28 | 10.00 | Partly Cloudy | SCT039 | 87.1 | 66.9 | 51% | 90 | 29.99 | 1016.0 | ||||||
| 01 | 10:53 | NE 12 G 23 | 10.00 | Fair | CLR | 87.1 | 66.9 | 51% | 90 | 30 | 1016.4 | ||||||
| 01 | 09:53 | NE 15 G 26 | 10.00 | Fair | CLR | 86 | 66.9 | 53% | 89 | 30 | 1016.6 | ||||||
| 01 | 08:53 | NE 9 | 10.00 | Partly Cloudy | SCT070 | 81 | 69.1 | 67% | 84 | 30.02 | 1017.0 | ||||||
| 01 | 07:53 | NE 8 | 10.00 | A Few Clouds | FEW070 | 79 | 68 | 79 | 75 | 69% | 81 | 30.01 | 1016.7 | ||||
| 01 | 06:53 | NE 7 | 10.00 | Fair | CLR | 75.9 | 66 | 72% | 77 | 30 | 1016.5 | ||||||
| 01 | 05:53 | NE 8 | 10.00 | Fair | CLR | 75 | 66 | 74% | 76 | 29.99 | 1016.1 | ||||||
| 01 | 04:53 | NE 7 | 10.00 | Fair | CLR | 75.9 | 66 | 72% | 77 | 29.98 | 1015.7 | ||||||
| 01 | 03:53 | NE 9 | 10.00 | A Few Clouds | FEW070 | 75.9 | 66 | 72% | 77 | 29.96 | 1015.2 | ||||||
| 01 | 02:53 | NE 7 | 10.00 | Fair | CLR | 75.9 | 64.9 | 69% | 78 | 29.97 | 1015.5 | ||||||
| 01 | 01:53 | NE 7 | 10.00 | Fair | CLR | 75 | 66 | 79 | 75 | 74% | 76 | 29.99 | 1016.2 | ||||
| 01 | 00:53 | NE 5 | 10.00 | Fair | CLR | 77 | 64.9 | 66% | 79 | 30.01 | 1016.8 | ||||||
| 31 | 23:53 | E 6 | 10.00 | Fair | CLR | 77 | 66 | 69% | 79 | 30.01 | 1016.9 | ||||||
| 31 | 22:53 | E 5 | 10.00 | A Few Clouds | FEW065 | 78.1 | 66 | 67% | 80 | 30.03 | 1017.4 | ||||||
| 31 | 21:53 | NE 8 | 10.00 | Partly Cloudy | SCT065 | 79 | 66 | 65% | 81 | 30.03 | 1017.5 | ||||||
| 31 | 20:53 | NE 6 | 10.00 | A Few Clouds | FEW060 | 78.1 | 66.9 | 69% | 80 | 30.01 | 1016.8 | ||||||
| 31 | 19:53 | NE 7 | 10.00 | Fair | CLR | 79 | 66.9 | 88 | 79 | 67% | 81 | 29.99 | 1016.1 | ||||
| 31 | 18:53 | NE 10 G 18 | 10.00 | Fair | CLR | 80.1 | 66 | 62% | 82 | 29.98 | 1015.7 | ||||||
| 31 | 17:53 | E 12 G 22 | 10.00 | Fair | CLR | 82 | 66 | 58% | 84 | 29.95 | 1014.8 | ||||||
| 31 | 16:53 | NE 13 G 24 | 10.00 | Fair | CLR | 84.9 | 66 | 53% | 87 | 29.95 | 1014.6 | ||||||
| 31 | 15:53 | NE 12 G 29 | 10.00 | Fair | CLR | 86 | 64.9 | 49% | 88 | 29.94 | 1014.5 | ||||||
| 31 | 14:53 | NE 10 G 25 | 10.00 | A Few Clouds | FEW044 | 87.1 | 66 | 50% | 89 | 29.95 | 1014.8 | ||||||
| 31 | 13:53 | NE 15 G 26 | 10.00 | Fair | CLR | 87.1 | 66 | 89.1 | 80.1 | 50% | 89 | 29.96 | 1015.2 | ||||
| 31 | 12:53 | NE 14 G 25 | 10.00 | Partly Cloudy | SCT042 | 88 | 66 | 48% | 90 | 29.99 | 1016.0 | ||||||
| 31 | 11:53 | NE 12 G 25 | 10.00 | A Few Clouds | FEW041 | 87.1 | 66.9 | 51% | 90 | 30.01 | 1016.9 | ||||||
| 31 | 10:53 | NE 9 G 23 | 10.00 | Partly Cloudy | SCT045 SCT055 | 87.1 | 66.9 | 51% | 90 | 30.02 | 1017.3 | ||||||
| Date | Time (hst) | Wind (mph) | Vis. (mi.) | Weather | Sky Cond. | Air | Dwpt | Max. | Min. | Relative Humidity | Wind Chill (°F) | Heat Index (°F) | altimeter (in) | sea level (mb) | 1 hr | 3 hr | 6 hr |
| 6 hour | |||||||||||||||||
| Temperature (ºF) | Pressure | Precipitation (in) | |||||||||||||||